owner,sensor,date,latitude,longitude,vertical_datum,wind_speed,wind_to_direction,wind_speed_of_gust,qcFlag 
LUMCON,ioos:station:LUMCON:101:1,2019-05-01T00:00:00Z,29.2533,-90.6633,1.0,5.3,85.0,5.7,'11111222,11111222,11111222' 
LUMCON,ioos:station:LUMCON:101:1,2019-05-01T00:15:00Z,29.2533,-90.6633,1.0,6.4,93.0,7.7,'11111222,11111222,11111222' 
LUMCON,ioos:station:LUMCON:101:1,2019-05-01T00:30:00Z,29.2533,-90.6633,1.0,7.3,84.0,8.3,'11111222,11111222,11111222' 
LUMCON,ioos:station:LUMCON:101:1,2019-05-01T00:45:00Z,29.2533,-90.6633,1.0,7.1,101.0,8.4,'11111222,11111222,11111222' 
LUMCON,ioos:station:LUMCON:101:1,2019-05-01T01:00:00Z,29.2533,-90.6633,1.0,6.0,95.0,7.5,'11111222,11111222,11111222' 
LUMCON,ioos:station:LUMCON:101:1,2019-05-01T01:15:00Z,29.2533,-90.6633,1.0,7.8,82.0,8.9,'11111222,11111222,11111222' 
LUMCON,ioos:station:LUMCON:101:1,2019-05-01T01:30:00Z,29.2533,-90.6633,1.0,6.0,84.0,6.9,'11111222,11111222,11111222' 
LUMCON,ioos:station:LUMCON:101:1,2019-05-01T01:45:00Z,29.2533,-90.6633,1.0,6.7,85.0,7.8,'11111222,11111222,11111222' 
LUMCON,ioos:station:LUMCON:101:1,2019-05-01T02:00:00Z,29.2533,-90.6633,1.0,8.8,90.0,9.3,'11111222,11111222,11111222' 
LUMCON,ioos:station:LUMCON:101:1,2019-05-01T02:15:00Z,29.2533,-90.6633,1.0,9.1,90.0,9.5,'11111222,11111222,11111222' 
LUMCON,ioos:station:LUMCON:101:1,2019-05-01T02:30:00Z,29.2533,-90.6633,1.0,7.8,91.0,8.5,'11111222,11111222,11111222' 
LUMCON,ioos:station:LUMCON:101:1,2019-05-01T02:45:00Z,29.2533,-90.6633,1.0,8.0,85.0,8.8,'11111222,11111222,11111222' 
LUMCON,ioos:station:LUMCON:101:1,2019-05-01T03:00:00Z,29.2533,-90.6633,1.0,6.3,97.0,6.6,'11111222,11111222,11111222' 
LUMCON,ioos:station:LUMCON:101:1,2019-05-01T03:15:00Z,29.2533,-90.6633,1.0,6.4,98.0,7.3,'11111222,11111222,11111222' 
LUMCON,ioos:station:LUMCON:101:1,2019-05-01T03:30:00Z,29.2533,-90.6633,1.0,6.8,95.0,8.5,'11111222,11111222,11111222' 
LUMCON,ioos:station:LUMCON:101:1,2019-05-01T03:45:00Z,29.2533,-90.6633,1.0,5.9,93.0,6.7,'11111222,11111222,11111222' 
LUMCON,ioos:station:LUMCON:101:1,2019-05-01T04:00:00Z,29.2533,-90.6633,1.0,7.8,94.0,8.4,'11111222,11111222,11111222' 
LUMCON,ioos:station:LUMCON:101:1,2019-05-01T04:15:00Z,29.2533,-90.6633,1.0,10.9,91.0,12.9,'11111222,11111222,11111222' 
LUMCON,ioos:station:LUMCON:101:1,2019-05-01T04:30:00Z,29.2533,-90.6633,1.0,7.7,87.0,8.4,'11111222,11111222,11111222' 
LUMCON,ioos:station:LUMCON:101:1,2019-05-01T04:45:00Z,29.2533,-90.6633,1.0,6.1,90.0,6.5,'11111222,11111222,11111222' 
LUMCON,ioos:station:LUMCON:101:1,2019-05-01T05:00:00Z,29.2533,-90.6633,1.0,7.3,88.0,7.9,'11111222,11111222,11111222' 
LUMCON,ioos:station:LUMCON:101:1,2019-05-01T05:15:00Z,29.2533,-90.6633,1.0,7.8,105.0,8.0,'11111222,11111222,11111222' 
LUMCON,ioos:station:LUMCON:101:1,2019-05-01T05:30:00Z,29.2533,-90.6633,1.0,8.0,99.0,8.9,'11111222,11111222,11111222' 
LUMCON,ioos:station:LUMCON:101:1,2019-05-01T05:45:00Z,29.2533,-90.6633,1.0,6.1,105.0,6.6,'11111222,11111222,11111222' 
LUMCON,ioos:station:LUMCON:101:1,2019-05-01T06:00:00Z,29.2533,-90.6633,1.0,6.7,110.0,7.1,'11111222,11111222,11111222' 
LUMCON,ioos:station:LUMCON:101:1,2019-05-01T06:15:00Z,29.2533,-90.6633,1.0,7.1,112.0,7.2,'11111222,11111222,11111222' 
LUMCON,ioos:station:LUMCON:101:1,2019-05-01T06:30:00Z,29.2533,-90.6633,1.0,8.5,97.0,9.0,'11111222,11111222,11111222' 
LUMCON,ioos:station:LUMCON:101:1,2019-05-01T06:45:00Z,29.2533,-90.6633,1.0,5.6,84.0,6.1,'11111222,11111222,11111222' 
LUMCON,ioos:station:LUMCON:101:1,2019-05-01T07:00:00Z,29.2533,-90.6633,1.0,6.1,97.0,7.3,'11111222,11111222,11111222' 
LUMCON,ioos:station:LUMCON:101:1,2019-05-01T07:15:00Z,29.2533,-90.6633,1.0,6.5,109.0,8.4,'11111222,11111222,11111222' 
LUMCON,ioos:station:LUMCON:101:1,2019-05-01T07:30:00Z,29.2533,-90.6633,1.0,6.6,107.0,7.8,'11111222,11111222,11111222' 
LUMCON,ioos:station:LUMCON:101:1,2019-05-01T07:45:00Z,29.2533,-90.6633,1.0,6.5,97.0,7.0,'11111222,11111222,11111222' 
LUMCON,ioos:station:LUMCON:101:1,2019-05-01T08:00:00Z,29.2533,-90.6633,1.0,7.1,95.0,7.6,'11111222,11111222,11111222' 
LUMCON,ioos:station:LUMCON:101:1,2019-05-01T08:15:00Z,29.2533,-90.6633,1.0,8.8,109.0,9.7,'11111222,11111222,11111222' 
LUMCON,ioos:station:LUMCON:101:1,2019-05-01T08:30:00Z,29.2533,-90.6633,1.0,5.6,96.0,6.4,'11111222,11111222,11111222' 
LUMCON,ioos:station:LUMCON:101:1,2019-05-01T08:45:00Z,29.2533,-90.6633,1.0,6.2,109.0,6.5,'11111222,11111222,11111222' 
LUMCON,ioos:station:LUMCON:101:1,2019-05-01T09:00:00Z,29.2533,-90.6633,1.0,8.0,107.0,8.9,'11111222,11111222,11111222' 
LUMCON,ioos:station:LUMCON:101:1,2019-05-01T09:15:00Z,29.2533,-90.6633,1.0,7.5,113.0,7.7,'11111222,11111222,11111222' 
LUMCON,ioos:station:LUMCON:101:1,2019-05-01T09:30:00Z,29.2533,-90.6633,1.0,4.1,124.0,4.9,'11111222,11111222,11111222' 
LUMCON,ioos:station:LUMCON:101:1,2019-05-01T09:45:00Z,29.2533,-90.6633,1.0,4.9,120.0,5.1,'11111222,11111222,11111222' 
LUMCON,ioos:station:LUMCON:101:1,2019-05-01T10:00:00Z,29.2533,-90.6633,1.0,5.6,125.0,6.0,'11111222,11111222,11111222' 
LUMCON,ioos:station:LUMCON:101:1,2019-05-01T10:15:00Z,29.2533,-90.6633,1.0,5.4,124.0,6.0,'11111222,11111222,11111222' 
LUMCON,ioos:station:LUMCON:101:1,2019-05-01T10:30:00Z,29.2533,-90.6633,1.0,6.3,126.0,6.8,'11111222,11111222,11111222' 
LUMCON,ioos:station:LUMCON:101:1,2019-05-01T10:45:00Z,29.2533,-90.6633,1.0,4.5,126.0,5.3,'11111222,11111222,11111222' 
LUMCON,ioos:station:LUMCON:101:1,2019-05-01T11:00:00Z,29.2533,-90.6633,1.0,3.7,106.0,4.2,'11111222,11111222,11111222' 
LUMCON,ioos:station:LUMCON:101:1,2019-05-01T11:15:00Z,29.2533,-90.6633,1.0,6.0,109.0,6.5,'11111222,11111222,11111222' 
LUMCON,ioos:station:LUMCON:101:1,2019-05-01T11:30:00Z,29.2533,-90.6633,1.0,4.8,105.0,5.2,'11111222,11111222,11111222' 
LUMCON,ioos:station:LUMCON:101:1,2019-05-01T11:45:00Z,29.2533,-90.6633,1.0,3.9,91.0,4.3,'11111222,11111222,11111222' 
LUMCON,ioos:station:LUMCON:101:1,2019-05-01T12:00:00Z,29.2533,-90.6633,1.0,3.7,103.0,4.0,'11111222,11111222,11111222' 
LUMCON,ioos:station:LUMCON:101:1,2019-05-01T12:15:00Z,29.2533,-90.6633,1.0,3.7,85.0,4.0,'11111222,11111222,11111222' 
LUMCON,ioos:station:LUMCON:101:1,2019-05-01T12:30:00Z,29.2533,-90.6633,1.0,6.7,93.0,7.2,'11111222,11111222,11111222' 
LUMCON,ioos:station:LUMCON:101:1,2019-05-01T12:45:00Z,29.2533,-90.6633,1.0,3.0,76.0,3.3,'11111222,11111222,11111222' 
LUMCON,ioos:station:LUMCON:101:1,2019-05-01T13:00:00Z,29.2533,-90.6633,1.0,4.8,86.0,5.0,'11111222,11111222,11111222' 
LUMCON,ioos:station:LUMCON:101:1,2019-05-01T13:15:00Z,29.2533,-90.6633,1.0,5.8,85.0,6.3,'11111222,11111222,11111222' 
LUMCON,ioos:station:LUMCON:101:1,2019-05-01T13:30:00Z,29.2533,-90.6633,1.0,5.2,94.0,5.5,'11111222,11111222,11111222' 
LUMCON,ioos:station:LUMCON:101:1,2019-05-01T13:45:00Z,29.2533,-90.6633,1.0,5.7,84.0,6.2,'11111222,11111222,11111222' 
LUMCON,ioos:station:LUMCON:101:1,2019-05-01T14:00:00Z,29.2533,-90.6633,1.0,5.8,96.0,6.5,'11111222,11111222,11111222' 
LUMCON,ioos:station:LUMCON:101:1,2019-05-01T14:15:00Z,29.2533,-90.6633,1.0,8.0,90.0,8.3,'11111222,11111222,11111222' 
LUMCON,ioos:station:LUMCON:101:1,2019-05-01T14:30:00Z,29.2533,-90.6633,1.0,6.0,104.0,6.8,'11111222,11111222,11111222' 
LUMCON,ioos:station:LUMCON:101:1,2019-05-01T14:45:00Z,29.2533,-90.6633,1.0,9.3,82.0,10.0,'11111222,11111222,11111222' 
LUMCON,ioos:station:LUMCON:101:1,2019-05-01T15:00:00Z,29.2533,-90.6633,1.0,8.0,83.0,9.1,'11111222,11111222,11111222' 
LUMCON,ioos:station:LUMCON:101:1,2019-05-01T15:15:00Z,29.2533,-90.6633,1.0,7.9,84.0,8.4,'11111222,11111222,11111222' 
LUMCON,ioos:station:LUMCON:101:1,2019-05-01T15:30:00Z,29.2533,-90.6633,1.0,6.9,91.0,7.4,'11111222,11111222,11111222' 
LUMCON,ioos:station:LUMCON:101:1,2019-05-01T15:45:00Z,29.2533,-90.6633,1.0,6.7,94.0,7.0,'11111222,11111222,11111222' 
LUMCON,ioos:station:LUMCON:101:1,2019-05-01T16:00:00Z,29.2533,-90.6633,1.0,5.5,90.0,5.8,'11111222,11111222,11111222' 
LUMCON,ioos:station:LUMCON:101:1,2019-05-01T16:15:00Z,29.2533,-90.6633,1.0,9.0,86.0,9.3,'11111222,11111222,11111222' 
LUMCON,ioos:station:LUMCON:101:1,2019-05-01T16:30:00Z,29.2533,-90.6633,1.0,5.7,92.0,6.1,'11111222,11111222,11111222' 
LUMCON,ioos:station:LUMCON:101:1,2019-05-01T16:45:00Z,29.2533,-90.6633,1.0,8.2,93.0,8.7,'11111222,11111222,11111222' 
LUMCON,ioos:station:LUMCON:101:1,2019-05-01T17:00:00Z,29.2533,-90.6633,1.0,6.3,91.0,6.8,'11111222,11111222,11111222' 
LUMCON,ioos:station:LUMCON:101:1,2019-05-01T17:15:00Z,29.2533,-90.6633,1.0,7.6,83.0,8.0,'11111222,11111222,11111222' 
LUMCON,ioos:station:LUMCON:101:1,2019-05-01T17:30:00Z,29.2533,-90.6633,1.0,6.0,99.0,6.6,'11111222,11111222,11111222' 
LUMCON,ioos:station:LUMCON:101:1,2019-05-01T17:45:00Z,29.2533,-90.6633,1.0,6.7,83.0,7.4,'11111222,11111222,11111222' 
LUMCON,ioos:station:LUMCON:101:1,2019-05-01T18:00:00Z,29.2533,-90.6633,1.0,6.7,84.0,7.8,'11111222,11111222,11111222' 
LUMCON,ioos:station:LUMCON:101:1,2019-05-01T18:15:00Z,29.2533,-90.6633,1.0,6.0,83.0,6.6,'11111222,11111222,11111222' 
LUMCON,ioos:station:LUMCON:101:1,2019-05-01T18:30:00Z,29.2533,-90.6633,1.0,6.3,84.0,6.9,'11111222,11111222,11111222' 
LUMCON,ioos:station:LUMCON:101:1,2019-05-01T18:45:00Z,29.2533,-90.6633,1.0,8.5,90.0,8.8,'11111222,11111222,11111222' 
LUMCON,ioos:station:LUMCON:101:1,2019-05-01T19:00:00Z,29.2533,-90.6633,1.0,7.8,90.0,8.4,'11111222,11111222,11111222' 
LUMCON,ioos:station:LUMCON:101:1,2019-05-01T19:15:00Z,29.2533,-90.6633,1.0,5.9,99.0,6.5,'11111222,11111222,11111222' 
LUMCON,ioos:station:LUMCON:101:1,2019-05-01T19:30:00Z,29.2533,-90.6633,1.0,6.4,89.0,6.9,'11111222,11111222,11111222' 
LUMCON,ioos:station:LUMCON:101:1,2019-05-01T19:45:00Z,29.2533,-90.6633,1.0,5.0,98.0,5.5,'11111222,11111222,11111222' 
LUMCON,ioos:station:LUMCON:101:1,2019-05-01T20:00:00Z,29.2533,-90.6633,1.0,6.1,79.0,7.4,'11111222,11111222,11111222' 
LUMCON,ioos:station:LUMCON:101:1,2019-05-01T20:15:00Z,29.2533,-90.6633,1.0,5.1,95.0,5.5,'11111222,11111222,11111222' 
LUMCON,ioos:station:LUMCON:101:1,2019-05-01T20:30:00Z,29.2533,-90.6633,1.0,7.6,88.0,7.9,'11111222,11111222,11111222' 
LUMCON,ioos:station:LUMCON:101:1,2019-05-01T20:45:00Z,29.2533,-90.6633,1.0,6.8,80.0,7.3,'11111222,11111222,11111222' 
LUMCON,ioos:station:LUMCON:101:1,2019-05-01T21:00:00Z,29.2533,-90.6633,1.0,5.1,92.0,5.4,'11111222,11111222,11111222' 
LUMCON,ioos:station:LUMCON:101:1,2019-05-01T21:15:00Z,29.2533,-90.6633,1.0,7.3,90.0,8.0,'11111222,11111222,11111222' 
LUMCON,ioos:station:LUMCON:101:1,2019-05-01T21:30:00Z,29.2533,-90.6633,1.0,7.3,78.0,7.8,'11111222,11111222,11111222' 
LUMCON,ioos:station:LUMCON:101:1,2019-05-01T21:45:00Z,29.2533,-90.6633,1.0,6.2,83.0,7.0,'11111222,11111222,11111222' 
LUMCON,ioos:station:LUMCON:101:1,2019-05-01T22:00:00Z,29.2533,-90.6633,1.0,5.5,69.0,6.0,'11111222,11111222,11111222' 
LUMCON,ioos:station:LUMCON:101:1,2019-05-01T22:15:00Z,29.2533,-90.6633,1.0,6.8,74.0,7.1,'11111222,11111222,11111222' 
LUMCON,ioos:station:LUMCON:101:1,2019-05-01T22:30:00Z,29.2533,-90.6633,1.0,9.0,78.0,10.0,'11111222,11111222,11111222' 
LUMCON,ioos:station:LUMCON:101:1,2019-05-01T22:45:00Z,29.2533,-90.6633,1.0,6.7,84.0,8.2,'11111222,11111222,11111222' 
LUMCON,ioos:station:LUMCON:101:1,2019-05-01T23:00:00Z,29.2533,-90.6633,1.0,7.1,85.0,7.5,'11111222,11111222,11111222' 
LUMCON,ioos:station:LUMCON:101:1,2019-05-01T23:15:00Z,29.2533,-90.6633,1.0,9.2,71.0,9.7,'11111222,11111222,11111222' 
LUMCON,ioos:station:LUMCON:101:1,2019-05-01T23:30:00Z,29.2533,-90.6633,1.0,5.0,80.0,5.8,'11111222,11111222,11111222' 
LUMCON,ioos:station:LUMCON:101:1,2019-05-01T23:45:00Z,29.2533,-90.6633,1.0,6.7,81.0,7.1,'11111222,11111222,11111222' 
LUMCON,ioos:station:LUMCON:101:1,2019-05-02T00:00:00Z,29.2533,-90.6633,1.0,7.9,82.0,8.6,'11111222,11111222,11111222' 
LUMCON,ioos:station:LUMCON:101:1,2019-05-02T00:15:00Z,29.2533,-90.6633,1.0,6.7,78.0,7.8,'11111222,11111222,11111222' 
LUMCON,ioos:station:LUMCON:101:1,2019-05-02T00:30:00Z,29.2533,-90.6633,1.0,8.4,86.0,9.7,'11111222,11111222,11111222' 
LUMCON,ioos:station:LUMCON:101:1,2019-05-02T00:45:00Z,29.2533,-90.6633,1.0,6.3,89.0,8.1,'11111222,11111222,11111222' 
LUMCON,ioos:station:LUMCON:101:1,2019-05-02T01:00:00Z,29.2533,-90.6633,1.0,7.0,77.0,7.4,'11111222,11111222,11111222' 
LUMCON,ioos:station:LUMCON:101:1,2019-05-02T01:15:00Z,29.2533,-90.6633,1.0,5.7,86.0,6.6,'11111222,11111222,11111222' 
LUMCON,ioos:station:LUMCON:101:1,2019-05-02T01:30:00Z,29.2533,-90.6633,1.0,6.5,82.0,7.5,'11111222,11111222,11111222' 
LUMCON,ioos:station:LUMCON:101:1,2019-05-02T01:45:00Z,29.2533,-90.6633,1.0,5.4,95.0,5.8,'11111222,11111222,11111222' 
LUMCON,ioos:station:LUMCON:101:1,2019-05-02T02:00:00Z,29.2533,-90.6633,1.0,8.8,87.0,9.4,'11111222,11111222,11111222' 
LUMCON,ioos:station:LUMCON:101:1,2019-05-02T02:15:00Z,29.2533,-90.6633,1.0,6.1,84.0,7.3,'11111222,11111222,11111222' 
LUMCON,ioos:station:LUMCON:101:1,2019-05-02T02:30:00Z,29.2533,-90.6633,1.0,6.9,85.0,7.7,'11111222,11111222,11111222' 
LUMCON,ioos:station:LUMCON:101:1,2019-05-02T02:45:00Z,29.2533,-90.6633,1.0,8.7,93.0,9.1,'11111222,11111222,11111222' 
LUMCON,ioos:station:LUMCON:101:1,2019-05-02T03:00:00Z,29.2533,-90.6633,1.0,4.5,93.0,5.0,'11111222,11111222,11111222' 
LUMCON,ioos:station:LUMCON:101:1,2019-05-02T03:15:00Z,29.2533,-90.6633,1.0,7.9,97.0,8.5,'11111222,11111222,11111222' 
LUMCON,ioos:station:LUMCON:101:1,2019-05-02T03:30:00Z,29.2533,-90.6633,1.0,7.7,91.0,8.6,'11111222,11111222,11111222' 
LUMCON,ioos:station:LUMCON:101:1,2019-05-02T03:45:00Z,29.2533,-90.6633,1.0,7.8,88.0,8.9,'11111222,11111222,11111222' 
LUMCON,ioos:station:LUMCON:101:1,2019-05-02T04:00:00Z,29.2533,-90.6633,1.0,5.7,107.0,7.0,'11111222,11111222,11111222' 
LUMCON,ioos:station:LUMCON:101:1,2019-05-02T04:15:00Z,29.2533,-90.6633,1.0,7.0,94.0,8.3,'11111222,11111222,11111222' 
LUMCON,ioos:station:LUMCON:101:1,2019-05-02T04:30:00Z,29.2533,-90.6633,1.0,7.5,92.0,8.4,'11111222,11111222,11111222' 
LUMCON,ioos:station:LUMCON:101:1,2019-05-02T04:45:00Z,29.2533,-90.6633,1.0,8.0,98.0,8.6,'11111222,11111222,11111222' 
LUMCON,ioos:station:LUMCON:101:1,2019-05-02T05:00:00Z,29.2533,-90.6633,1.0,8.1,91.0,9.1,'11111222,11111222,11111222' 
LUMCON,ioos:station:LUMCON:101:1,2019-05-02T05:15:00Z,29.2533,-90.6633,1.0,5.3,100.0,5.9,'11111222,11111222,11111222' 
LUMCON,ioos:station:LUMCON:101:1,2019-05-02T05:30:00Z,29.2533,-90.6633,1.0,9.5,89.0,10.3,'11111222,11111222,11111222' 
LUMCON,ioos:station:LUMCON:101:1,2019-05-02T05:45:00Z,29.2533,-90.6633,1.0,9.1,91.0,10.2,'11111222,11111222,11111222' 
LUMCON,ioos:station:LUMCON:101:1,2019-05-02T06:00:00Z,29.2533,-90.6633,1.0,7.6,93.0,7.8,'11111222,11111222,11111222' 
LUMCON,ioos:station:LUMCON:101:1,2019-05-02T06:15:00Z,29.2533,-90.6633,1.0,6.6,83.0,7.0,'11111222,11111222,11111222' 
LUMCON,ioos:station:LUMCON:101:1,2019-05-02T06:30:00Z,29.2533,-90.6633,1.0,8.4,84.0,8.8,'11111222,11111222,11111222' 
LUMCON,ioos:station:LUMCON:101:1,2019-05-02T06:45:00Z,29.2533,-90.6633,1.0,7.3,94.0,7.7,'11111222,11111222,11111222' 
LUMCON,ioos:station:LUMCON:101:1,2019-05-02T07:00:00Z,29.2533,-90.6633,1.0,7.6,95.0,8.9,'11111222,11111222,11111222' 
LUMCON,ioos:station:LUMCON:101:1,2019-05-02T07:15:00Z,29.2533,-90.6633,1.0,7.5,105.0,8.2,'11111222,11111222,11111222' 
LUMCON,ioos:station:LUMCON:101:1,2019-05-02T07:30:00Z,29.2533,-90.6633,1.0,6.7,106.0,7.6,'11111222,11111222,11111222' 
LUMCON,ioos:station:LUMCON:101:1,2019-05-02T07:45:00Z,29.2533,-90.6633,1.0,7.4,91.0,8.0,'11111222,11111222,11111222' 
LUMCON,ioos:station:LUMCON:101:1,2019-05-02T08:00:00Z,29.2533,-90.6633,1.0,6.1,91.0,6.9,'11111222,11111222,11111222' 
LUMCON,ioos:station:LUMCON:101:1,2019-05-02T08:15:00Z,29.2533,-90.6633,1.0,6.9,90.0,7.6,'11111222,11111222,11111222' 
LUMCON,ioos:station:LUMCON:101:1,2019-05-02T08:30:00Z,29.2533,-90.6633,1.0,5.2,91.0,5.3,'11111222,11111222,11111222' 
LUMCON,ioos:station:LUMCON:101:1,2019-05-02T08:45:00Z,29.2533,-90.6633,1.0,6.5,104.0,7.4,'11111222,11111222,11111222' 
LUMCON,ioos:station:LUMCON:101:1,2019-05-02T09:00:00Z,29.2533,-90.6633,1.0,6.3,100.0,6.8,'11111222,11111222,11111222' 
LUMCON,ioos:station:LUMCON:101:1,2019-05-02T09:15:00Z,29.2533,-90.6633,1.0,5.8,109.0,6.1,'11111222,11111222,11111222' 
LUMCON,ioos:station:LUMCON:101:1,2019-05-02T09:30:00Z,29.2533,-90.6633,1.0,5.0,94.0,6.0,'11111222,11111222,11111222' 
LUMCON,ioos:station:LUMCON:101:1,2019-05-02T09:45:00Z,29.2533,-90.6633,1.0,4.8,97.0,5.4,'11111222,11111222,11111222' 
LUMCON,ioos:station:LUMCON:101:1,2019-05-02T10:00:00Z,29.2533,-90.6633,1.0,5.1,89.0,5.8,'11111222,11111222,11111222' 
LUMCON,ioos:station:LUMCON:101:1,2019-05-02T10:15:00Z,29.2533,-90.6633,1.0,7.8,94.0,9.0,'11111222,11111222,11111222' 
LUMCON,ioos:station:LUMCON:101:1,2019-05-02T10:30:00Z,29.2533,-90.6633,1.0,7.2,94.0,7.7,'11111222,11111222,11111222' 
LUMCON,ioos:station:LUMCON:101:1,2019-05-02T10:45:00Z,29.2533,-90.6633,1.0,5.5,100.0,7.4,'11111222,11111222,11111222' 
LUMCON,ioos:station:LUMCON:101:1,2019-05-02T11:00:00Z,29.2533,-90.6633,1.0,5.5,87.0,5.9,'11111222,11111222,11111222' 
LUMCON,ioos:station:LUMCON:101:1,2019-05-02T11:15:00Z,29.2533,-90.6633,1.0,7.7,88.0,8.1,'11111222,11111222,11111222' 
LUMCON,ioos:station:LUMCON:101:1,2019-05-02T11:30:00Z,29.2533,-90.6633,1.0,5.6,92.0,5.9,'11111222,11111222,11111222' 
LUMCON,ioos:station:LUMCON:101:1,2019-05-02T11:45:00Z,29.2533,-90.6633,1.0,6.7,98.0,8.3,'11111222,11111222,11111222' 
LUMCON,ioos:station:LUMCON:101:1,2019-05-02T12:00:00Z,29.2533,-90.6633,1.0,7.0,87.0,7.9,'11111222,11111222,11111222' 
LUMCON,ioos:station:LUMCON:101:1,2019-05-02T12:15:00Z,29.2533,-90.6633,1.0,6.1,94.0,6.4,'11111222,11111222,11111222' 
LUMCON,ioos:station:LUMCON:101:1,2019-05-02T12:30:00Z,29.2533,-90.6633,1.0,4.8,86.0,5.5,'11111222,11111222,11111222' 
LUMCON,ioos:station:LUMCON:101:1,2019-05-02T12:45:00Z,29.2533,-90.6633,1.0,4.8,95.0,5.5,'11111222,11111222,11111222' 
LUMCON,ioos:station:LUMCON:101:1,2019-05-02T13:00:00Z,29.2533,-90.6633,1.0,6.3,97.0,6.9,'11111222,11111222,11111222' 
LUMCON,ioos:station:LUMCON:101:1,2019-05-02T13:15:00Z,29.2533,-90.6633,1.0,5.6,90.0,6.0,'11111222,11111222,11111222' 
LUMCON,ioos:station:LUMCON:101:1,2019-05-02T13:30:00Z,29.2533,-90.6633,1.0,6.2,85.0,6.4,'11111222,11111222,11111222' 
LUMCON,ioos:station:LUMCON:101:1,2019-05-02T13:45:00Z,29.2533,-90.6633,1.0,5.6,74.0,6.1,'11111222,11111222,11111222' 
LUMCON,ioos:station:LUMCON:101:1,2019-05-02T14:00:00Z,29.2533,-90.6633,1.0,5.6,91.0,5.9,'11111222,11111222,11111222' 
LUMCON,ioos:station:LUMCON:101:1,2019-05-02T14:15:00Z,29.2533,-90.6633,1.0,5.9,81.0,6.4,'11111222,11111222,11111222' 
LUMCON,ioos:station:LUMCON:101:1,2019-05-02T14:30:00Z,29.2533,-90.6633,1.0,5.7,89.0,5.9,'11111222,11111222,11111222' 
LUMCON,ioos:station:LUMCON:101:1,2019-05-02T14:45:00Z,29.2533,-90.6633,1.0,5.6,85.0,6.1,'11111222,11111222,11111222' 
LUMCON,ioos:station:LUMCON:101:1,2019-05-02T15:00:00Z,29.2533,-90.6633,1.0,4.3,74.0,4.9,'11111222,11111222,11111222' 
LUMCON,ioos:station:LUMCON:101:1,2019-05-02T15:15:00Z,29.2533,-90.6633,1.0,5.4,74.0,5.9,'11111222,11111222,11111222' 
LUMCON,ioos:station:LUMCON:101:1,2019-05-02T15:30:00Z,29.2533,-90.6633,1.0,4.4,85.0,4.8,'11111222,11111222,11111222' 
LUMCON,ioos:station:LUMCON:101:1,2019-05-02T15:45:00Z,29.2533,-90.6633,1.0,3.1,87.0,3.5,'11111222,11111222,11111222' 
LUMCON,ioos:station:LUMCON:101:1,2019-05-02T16:00:00Z,29.2533,-90.6633,1.0,2.6,67.0,3.1,'11111222,11111222,11111222' 
LUMCON,ioos:station:LUMCON:101:1,2019-05-02T16:15:00Z,29.2533,-90.6633,1.0,3.5,62.0,3.7,'11111222,11111222,11111222' 
LUMCON,ioos:station:LUMCON:101:1,2019-05-02T16:30:00Z,29.2533,-90.6633,1.0,3.3,91.0,3.9,'11111222,11111222,11111222' 
LUMCON,ioos:station:LUMCON:101:1,2019-05-02T16:45:00Z,29.2533,-90.6633,1.0,2.6,30.0,2.8,'11111222,11111222,11111222' 
LUMCON,ioos:station:LUMCON:101:1,2019-05-02T17:00:00Z,29.2533,-90.6633,1.0,2.2,68.0,2.8,'11111222,11111222,11111222' 
LUMCON,ioos:station:LUMCON:101:1,2019-05-02T17:15:00Z,29.2533,-90.6633,1.0,3.2,69.0,3.8,'11111222,11111222,11111222' 
LUMCON,ioos:station:LUMCON:101:1,2019-05-02T17:30:00Z,29.2533,-90.6633,1.0,3.7,66.0,4.8,'11111222,11111222,11111222' 
LUMCON,ioos:station:LUMCON:101:1,2019-05-02T17:45:00Z,29.2533,-90.6633,1.0,4.3,72.0,4.8,'11111222,11111222,11111222' 
LUMCON,ioos:station:LUMCON:101:1,2019-05-02T18:00:00Z,29.2533,-90.6633,1.0,3.3,99.0,3.7,'11111222,11111222,11111222' 
LUMCON,ioos:station:LUMCON:101:1,2019-05-02T18:15:00Z,29.2533,-90.6633,1.0,3.8,94.0,3.9,'11111222,11111222,11111222' 
LUMCON,ioos:station:LUMCON:101:1,2019-05-02T18:30:00Z,29.2533,-90.6633,1.0,4.5,89.0,4.7,'11111222,11111222,11111222' 
LUMCON,ioos:station:LUMCON:101:1,2019-05-02T18:45:00Z,29.2533,-90.6633,1.0,4.1,85.0,4.5,'11111222,11111222,11111222' 
LUMCON,ioos:station:LUMCON:101:1,2019-05-02T19:00:00Z,29.2533,-90.6633,1.0,2.4,74.0,3.3,'11111222,11111222,11111222' 
LUMCON,ioos:station:LUMCON:101:1,2019-05-02T19:15:00Z,29.2533,-90.6633,1.0,4.1,68.0,4.8,'11111222,11111222,11111222' 
LUMCON,ioos:station:LUMCON:101:1,2019-05-02T19:30:00Z,29.2533,-90.6633,1.0,4.8,99.0,5.7,'11111222,11111222,11111222' 
LUMCON,ioos:station:LUMCON:101:1,2019-05-02T19:45:00Z,29.2533,-90.6633,1.0,5.4,81.0,5.7,'11111222,11111222,11111222' 
LUMCON,ioos:station:LUMCON:101:1,2019-05-02T20:00:00Z,29.2533,-90.6633,1.0,3.3,89.0,3.5,'11111222,11111222,11111222' 
LUMCON,ioos:station:LUMCON:101:1,2019-05-02T20:15:00Z,29.2533,-90.6633,1.0,3.7,92.0,3.8,'11111222,11111222,11111222' 
LUMCON,ioos:station:LUMCON:101:1,2019-05-02T20:30:00Z,29.2533,-90.6633,1.0,6.2,86.0,6.5,'11111222,11111222,11111222' 
LUMCON,ioos:station:LUMCON:101:1,2019-05-02T20:45:00Z,29.2533,-90.6633,1.0,5.5,95.0,6.0,'11111222,11111222,11111222' 
LUMCON,ioos:station:LUMCON:101:1,2019-05-02T21:00:00Z,29.2533,-90.6633,1.0,7.7,114.0,8.2,'11111222,11111222,11111222' 
LUMCON,ioos:station:LUMCON:101:1,2019-05-02T21:15:00Z,29.2533,-90.6633,1.0,4.8,116.0,6.0,'11111222,11111222,11111222' 
LUMCON,ioos:station:LUMCON:101:1,2019-05-02T21:30:00Z,29.2533,-90.6633,1.0,6.6,118.0,7.2,'11111222,11111222,11111222' 
LUMCON,ioos:station:LUMCON:101:1,2019-05-02T21:45:00Z,29.2533,-90.6633,1.0,5.4,101.0,5.6,'11111222,11111222,11111222' 
LUMCON,ioos:station:LUMCON:101:1,2019-05-02T22:00:00Z,29.2533,-90.6633,1.0,7.7,94.0,9.8,'11111222,11111222,11111222' 
LUMCON,ioos:station:LUMCON:101:1,2019-05-02T22:15:00Z,29.2533,-90.6633,1.0,6.3,96.0,6.4,'11111222,11111222,11111222' 
LUMCON,ioos:station:LUMCON:101:1,2019-05-02T22:30:00Z,29.2533,-90.6633,1.0,7.0,89.0,7.4,'11111222,11111222,11111222' 
LUMCON,ioos:station:LUMCON:101:1,2019-05-02T22:45:00Z,29.2533,-90.6633,1.0,5.5,92.0,6.5,'11111222,11111222,11111222' 
LUMCON,ioos:station:LUMCON:101:1,2019-05-02T23:00:00Z,29.2533,-90.6633,1.0,6.9,104.0,8.7,'11111222,11111222,11111222' 
LUMCON,ioos:station:LUMCON:101:1,2019-05-02T23:15:00Z,29.2533,-90.6633,1.0,5.4,110.0,6.3,'11111222,11111222,11111222' 
LUMCON,ioos:station:LUMCON:101:1,2019-05-02T23:30:00Z,29.2533,-90.6633,1.0,5.4,114.0,6.1,'11111222,11111222,11111222' 
LUMCON,ioos:station:LUMCON:101:1,2019-05-02T23:45:00Z,29.2533,-90.6633,1.0,6.6,109.0,7.1,'11111222,11111222,11111222' 
LUMCON,ioos:station:LUMCON:101:1,2019-05-03T00:00:00Z,29.2533,-90.6633,1.0,5.2,101.0,5.5,'11111222,11111222,11111222' 
LUMCON,ioos:station:LUMCON:101:1,2019-05-03T00:15:00Z,29.2533,-90.6633,1.0,7.0,114.0,7.5,'11111222,11111222,11111222' 
LUMCON,ioos:station:LUMCON:101:1,2019-05-03T00:30:00Z,29.2533,-90.6633,1.0,6.4,94.0,6.6,'11111222,11111222,11111222' 
LUMCON,ioos:station:LUMCON:101:1,2019-05-03T00:45:00Z,29.2533,-90.6633,1.0,5.6,97.0,5.9,'11111222,11111222,11111222' 
LUMCON,ioos:station:LUMCON:101:1,2019-05-03T01:00:00Z,29.2533,-90.6633,1.0,4.3,100.0,4.9,'11111222,11111222,11111222' 
LUMCON,ioos:station:LUMCON:101:1,2019-05-03T01:15:00Z,29.2533,-90.6633,1.0,3.3,92.0,3.6,'11111222,11111222,11111222' 
LUMCON,ioos:station:LUMCON:101:1,2019-05-03T01:30:00Z,29.2533,-90.6633,1.0,6.4,103.0,6.5,'11111222,11111222,11111222' 
LUMCON,ioos:station:LUMCON:101:1,2019-05-03T01:45:00Z,29.2533,-90.6633,1.0,5.5,94.0,5.7,'11111222,11111222,11111222' 
LUMCON,ioos:station:LUMCON:101:1,2019-05-03T02:00:00Z,29.2533,-90.6633,1.0,5.9,96.0,6.2,'11111222,11111222,11111222' 
LUMCON,ioos:station:LUMCON:101:1,2019-05-03T02:15:00Z,29.2533,-90.6633,1.0,5.5,115.0,5.9,'11111222,11111222,11111222' 